STARLINK-1597, 46142

Orbit data source: Space-Track

STARLINK-1597, 46142 is a payload satellite owned by SpaceX/Seattle (US) in LEO that was launched on Tue, 18 Aug 2020 UTC via an FALCON 9 launch vehicle from the Air Force Eastern Test Range (AFETR). Payload-class satellites include a variety of spacecraft equipped with specific instruments for various scientific and technological missions. These include communications satellites like Starlink; space stations such as the ISS; scientific satellites like the Hubble; Earth observation satellites from companies like Planet Labs, Umbra, and HawkEye 360; GPS; miniature CubeSats for education and research; and military/defense satellites.

Loading next visibility...
Identifier
46142, 2020-057AB
Orbit
LEO
Country
Flag of USUS
Related business
Manufacturer
SpaceX/Seattle
Mission
Operational Commercial Communications
Bus & Motor
STARLINK, Unknown motor
Mass
260 kg wet, ~248 kg dry
Launch date (UTC)
2020-08-18 (5 years ago)
Launch vehicle
FALCON 9
Launch site
Air Force Eastern Test Range (AFETR)
Object type
Payload
Rocket body
Debris
Shape & HBR
Box + 1 Pan, 4.4 m
Radar Cross Section
13.562 m², Large (>1 m²)

Expand to show TLE details & history
Last TLE update: 15 hours ago

TLE from 15 hours ago
0 STARLINK-1597
1 46142U 20057AB  25260.01518960 -.00000690  00000-0 -27422-4 0  9994
2 46142  53.0558  16.2740 0001171  99.7094 260.4027 15.06397054279888
Epoch: 2025-09-17T00:21Z
TLE epoch observation values (Epoch: 2025-09-17T00:21:52.381Z)
Latitude
-0.00004°
Longitude
14.6085°
Altitude
548.235 km
Speed
7.589 km/s
True Right ascension
01h 05m 05s
True Declination
0° 00' 00"
Sunlit
Object was in full shadow at epoch
Visualization orbit readout
Latitude
Unknown
Longitude
Unknown
Altitude
Unknown
Speed
Unknown
Apparent Right ascension
Unknown
Apparent Declination
Unknown
Sunlit
N/A
Visualization observer readout
Local Sidereal Time
07:41:38
Azimuth
Unknown
Elevation
Unknown
Doppler factor
Unknown
Orbital elements
Apogee altitude
548.302 km
Perigee altitude
546.68 km
Semi-major axis
6,925.628 km
Eccentricity
0.00012
Inclination
53.0558°
RAAN
16.274°
Arg. of periapsis
99.7094°
True anomaly
260.38947°
Mean anomaly
260.4027°
Eccentric anomaly
260.39608°
Mean motion
3.76578 °/min
Orbital period
95.6 mins
BSTAR
-0.000027422
Loading maneuver chart data...
Computing Atmospheric mass density...
Loading historical data...
Loading historical data...
Loading historical data...
Loading historical data...
Loading historical data...
Loading historical data...
Loading historical data...

Documentation

Showing up to 5 results
|